This demonstration page uses our WeatherBlox Daily Observations layout. Learn more.

Left ArrowRight Arrow

44.89941, -97.11507

Hourly Observations for June 15, 2021

Temp ( °F °C ) Dew Point ( °F °C ) Humidity (%) Winds ( mph kmh ) Pressure ( in mb ) Visibility ( mi km ) Precip ( " mm )
12:53 am 00:53 Clear 58 14.4 49 9.4 72 72 N 3 6 30.14 1021 10 16 0.00 0.00
1:53 am 01:53 Clear 59 15 50 10 72 72 N 5 7 30.14 1021 10 16 0.00 0.00
2:53 am 02:53 Clear 56 13.3 49 9.4 77 77 N 6 9 30.14 1021 10 16 0.00 0.00
3:53 am 03:53 Clear 55 12.8 48 8.9 77 77 N 5 7 30.14 1021 10 16 0.00 0.00
4:53 am 04:53 Clear 58 14.4 48 8.9 70 70 Calm 30.14 1021 10 16 0.00 0.00
5:53 am 05:53 Sunny 57 13.9 47 8.3 69 69 Calm 30.15 1021 10 16 0.00 0.00
6:53 am 06:53 Sunny 63 17.2 50 10 63 63 E 3 6 30.14 1021 10 16 0.00 0.00
7:53 am 07:53 Sunny 67 19.4 51 10.6 57 57 ESE 5 7 30.14 1021 10 16 0.00 0.00
8:53 am 08:53 Sunny 72 22.2 51 10.6 48 48 ESE 5 7 30.16 1021 10 16 0.00 0.00
9:53 am 09:53 Sunny 76 24.4 51 10.6 42 42 S 8 13 30.16 1021 10 16 0.00 0.00
10:53 am 10:53 Sunny 78 25.6 51 10.6 39 39 VRB 5 7 30.15 1021 10 16 0.00 0.00
11:53 am 11:53 Sunny 80 26.7 48 8.9 33 33 ESE 8 13 30.13 1020 10 16 0.00 0.00
12:53 pm 12:53 Sunny 82 27.8 49 9.4 32 32 ESE 8 13 30.13 1020 10 16 0.00 0.00
1:53 pm 13:53 Sunny 82 27.8 48 8.9 31 31 E 10 17 30.10 1019 10 16 0.00 0.00
2:53 pm 14:53 Sunny 84 28.9 48 8.9 29 29 E 10 17 30.09 1019 10 16 0.00 0.00
3:53 pm 15:53 Sunny 84 28.9 46 7.8 27 27 ESE 8 13 30.08 1019 10 16 0.00 0.00
5:53 pm 17:53 Sunny 85 29.4 48 8.9 28 28 VRB 6 9 30.07 1018 10 16 0.00 0.00
6:53 pm 18:53 Sunny 84 28.9 48 8.9 29 29 ESE 8 13 30.05 1018 10 16 0.00 0.00
7:53 pm 19:53 Sunny 82 27.8 49 9.4 32 32 E 8 13 30.05 1018 10 16 0.00 0.00
8:53 pm 20:53 Sunny 79 26.1 50 10 36 36 E 7 11 30.04 1017 10 16 0.00 0.00
9:53 pm 21:53 Clear 76 24.4 52 11.1 43 43 E 8 13 30.04 1017 10 16 0.00 0.00
10:53 pm 22:53 Clear 74 23.3 51 10.6 45 45 E 8 13 30.04 1017 10 16 0.00 0.00
11:53 pm 23:53 Clear 71 21.7 51 10.6 49 49 SE 8 13 30.03 1017 10 16 0.00 0.00

Powered by AerisWeather